Weather observations for the past three days for
Wallops Flight Facility Airport
Imperial (Metric)
Date Time (edt) Wind (mph) Vis. (mi.) Weather Sky Cond. Temperature (ºF) Relative Humidity Wind Chill (°F) Heat Index (°F) Pressure Precipitation (in)
Air Dwpt 6 hour altimeter (in) sea level (mb) 1 hr 3 hr 6 hr
Max. Min.
17 05:54 S 6 7.00 Fair CLR 75.9 73.9 94% 75 29.88 1011.4
17 04:54 SW 8 5.00 Fog/Mist CLR 75.9 73.9 94% 75 29.85 1010.6
17 03:54 S 6 5.00 Fog/Mist CLR 77 75.9 96% 78 29.85 1010.5
17 02:54 S 6 5.00 Fog/Mist CLR 75.9 75 97% 75 29.86 1010.9
17 01:54 S 6 5.00 Fog/Mist CLR 77 75 84 75.9 94% 78 29.87 1011.2
17 00:54 S 6 5.00 Fog/Mist CLR 77 75 94% 78 29.88 1011.4
16 23:54 S 5 6.00 Fog/Mist CLR 80.1 77 90% 86 29.87 1011.3
16 22:54 S 6 7.00 Fair CLR 81 77 88% 88 29.87 1011.0
16 21:54 S 5 8.00 Fair CLR 80.1 77 90% 86 29.86 1010.8
16 20:54 S 6 7.00 Fair CLR 79 75 88% 83 29.85 1010.6
16 19:54 S 7 7.00 Fair CLR 84 77 89.1 84 80% 94 29.85 1010.4
16 18:54 S 9 7.00 Fair CLR 84.9 77 77% 95 29.84 1010.1
16 17:54 S 14 7.00 Fair CLR 84.9 78.1 80% 97 29.83 1010.0
16 16:54 S 14 7.00 Fair CLR 88 79 75% 103 29.84 1010.2
16 15:54 S 16 7.00 Fair CLR 89.1 79 72% 105 29.85 1010.6
16 14:54 S 17 7.00 Fair CLR 88 78.1 73% 102 29.86 1011.0
16 13:54 S 16 7.00 Fair CLR 88 78.1 90 84 73% 102 29.87 1011.2
16 12:54 S 13 8.00 Fair CLR 90 78.1 68% 105 29.89 1012.0
16 11:54 S 13 8.00 Fair CLR 88 78.1 73% 102 29.9 1012.1
16 10:54 S 9 7.00 Fair CLR 86 77 75% 97 29.9 1012.3
16 09:54 SW 8 9.00 Fair CLR 89.1 75.9 65% 100 29.9 1012.3
16 08:54 W 9 8.00 Fair CLR 87.1 77 72% 99 29.9 1012.3
16 07:54 SW 3 8.00 Fair CLR 84 75.9 84 79 77% 93 29.9 1012.3
16 06:54 SW 6 8.00 A Few Clouds FEW100 81 75 82% 87 29.89 1011.8
16 05:54 SW 7 9.00 Mostly Cloudy BKN100 81 75 82% 87 29.88 1011.7
16 04:54 SW 7 8.00 Fair CLR 80.1 75.9 87% 85 29.87 1011.1
16 03:54 SW 7 7.00 Fair CLR 80.1 77 90% 86 29.86 1010.8
16 02:54 SW 8 8.00 Fair CLR 82 78.1 88% 91 29.86 1010.7
16 01:54 SW 7 7.00 Fair CLR 81 77 84.9 79 88% 88 29.86 1010.7
16 00:54 SW 7 7.00 Fair CLR 80.1 77 90% 86 29.86 1010.9
15 23:54 SW 8 8.00 Fair CLR 81 77 88% 88 29.88 1011.5
15 22:54 S 7 8.00 Fair CLR 80.1 75.9 87% 85 29.88 1011.6
15 21:54 S 7 8.00 Fair CLR 81 75 82% 87 29.9 1012.1
15 20:54 S 8 10.00 Fair CLR 82 72 72% 87 29.89 1011.8
15 19:54 Calm 9.00 Fair CLR 84.9 73 95 84.9 68% 92 29.87 1011.2
15 18:54 SW 8 9.00 Fair CLR 90 75.9 63% 102 29.88 1011.5
15 17:54 W 8 10.00 Fair CLR 93 73.9 54% 103 29.87 1011.3
15 16:54 SW 8 10.00 Fair CLR 93 73 52% 102 29.88 1011.5
15 15:54 SW 9 9.00 Fair CLR 93.9 77 58% 108 29.89 1012.0
15 14:54 W 7 10.00 Fair CLR 93.9 75.9 56% 107 29.91 1012.4
15 13:54 Vrbl 5 9.00 Fair CLR 93.9 75.9 93.9 80.1 56% 107 29.92 1012.8
15 12:54 W 9 8.00 Fair CLR 91.9 78.1 64% 107 29.94 1013.6
15 11:54 W 9 8.00 Fair CLR 89.1 77 68% 102 29.95 1013.8
15 10:54 W 9 8.00 Fair CLR 88 75.9 68% 99 29.94 1013.6
15 09:54 W 7 9.00 Fair CLR 86 75 70% 95 29.94 1013.5
15 08:54 W 7 9.00 Fair CLR 84.9 75.9 75% 94 29.96 1014.1
15 07:54 SW 6 7.00 Fair CLR 80.1 75.9 80.1 73.9 87% 85 29.96 1014.2
15 06:54 SW 7 6.00 Fog/Mist CLR 75 73.9 96% 73 29.95 1013.8
15 05:54 S 6 6.00 Fog/Mist CLR 73.9 73 97% 29.95 1013.8
15 04:54 S 3 6.00 Fog/Mist FEW120 73.9 73 97% 29.95 1013.7
15 03:54 SW 5 7.00 Partly Cloudy SCT110 73.9 73 97% 29.94 1013.5
15 02:54 S 5 7.00 Fair CLR 73.9 73 97% 29.95 1013.8
15 01:54 S 5 7.00 Fair CLR 73.9 73 80.1 73.9 97% 29.95 1014.0
15 00:54 S 7 7.00 Fair CLR 75.9 75 97% 75 29.96 1014.3
14 23:54 S 8 8.00 Fair CLR 77 75.9 96% 78 29.98 1014.8
14 22:54 S 10 10.00 Fair CLR 78.1 75.9 93% 81 29.99 1015.3
14 21:54 S 12 10.00 Fair CLR 79 75 88% 83 30 1015.4
14 20:54 S 9 8.00 Fair CLR 79 77 94% 83 29.99 1015.4
14 19:54 S 10 7.00 Fair CLR 80.1 78.1 88 80.1 94% 86 30.01 1015.8
14 18:54 S 13 10.00 Fair CLR 80.1 77 90% 86 30 1015.7
14 17:54 S 10 10.00 Fair CLR 84.9 75.9 75% 94 30 1015.6
14 16:54 S 13 10.00 Fair CLR 84.9 77 77% 95 30.01 1015.9
14 15:54 S 13 10.00 Fair CLR 88 77 70% 100 30.01 1016.0
14 14:54 S 10 10.00 Fair CLR 87.1 75.9 70% 98 30.03 1016.7
14 13:54 S 12 10.00 Fair CLR 86 78.1 87.1 75.9 77% 98 30.05 1017.4
14 12:54 S 7 10.00 Fair CLR 86 77 75% 97 30.07 1018.0
14 11:54 SE 5 10.00 Fair CLR 84.9 77 77% 95 30.08 1018.4
14 10:54 SE 7 6.00 Fair with Haze CLR 84.9 79 82% 98 30.09 1018.6
14 09:54 SE 3 7.00 Overcast OVC004 82 79 90% 92 30.09 1018.5
14 08:54 SE 3 1.50 Fog/Mist OVC002 77 77 100% 78 30.08 1018.4
14 06:54 Calm 0.25 Fog VV002 75 75 100% 72 30.07 1018.0
Date Time (edt) Wind (mph) Vis. (mi.) Weather Sky Cond. Air Dwpt Max. Min. Relative Humidity Wind Chill (°F) Heat Index (°F) altimeter (in) sea level (mb) 1 hr 3 hr 6 hr
6 hour
Temperature (ºF) Pressure Precipitation (in)